SHIJIAN-29A (SJ-29A)

Last updated on Sun Apr 12 2026 00:02:57 GMT+0000 (Coordinated Universal Time)

1 67302U 25315A 26101.78826953 -.00000065 00000+0 00000+0 0 9992 2 67302 3.2276 96.7685 0002812 320.7545 139.5932 1.00274591 955
UTC large
Height (km)
Speed (km/s)
/
Latitude / Longitude
Inclination (degrees)
Orbital Period (minutes)
Azimuth
Elevation
Range (km)
Doppler Factor

Next 0 passes for location: London (51.5072 / 0.1276)

Sorry there are no passes over London.
SHIJIAN-29A (SJ-29A)